| time (UTC) | temp F | wind direction | speed knots | gust knots | rain 1hr in | rain 24hr in | rain mn in | humidity % | barometer mb |
| 20260506200042 | 63 | 263 | 3.5 | 7.0 | 0.00 | 0.00 | 0.00 | 79 | 1007.3 |
| 20260506194556 | 64 | 202 | 1.7 | 5.2 | 0.00 | 0.00 | 0.00 | 74 | 1007.3 |
| 20260506193140 | 65 | 107 | 0.9 | 6.1 | 0.00 | 0.00 | 0.00 | 72 | 1007.5 |
| 20260506191538 | 66 | 245 | 1.7 | 8.7 | 0.00 | 0.00 | 0.00 | 66 | 1007.6 |
| 20260506190042 | 66 | 233 | 0.9 | 5.2 | 0.00 | 0.00 | 0.00 | 64 | 1007.5 |
| 20260506184538 | 67 | 221 | 2.6 | 8.7 | 0.00 | 0.00 | 0.00 | 63 | 1007.6 |
| 20260506183036 | 67 | 196 | 3.5 | 7.8 | 0.00 | 0.00 | 0.00 | 61 | 1007.6 |
| 20260506181539 | 68 | 251 | 1.7 | 6.1 | 0.00 | 0.00 | 0.00 | 61 | 1007.7 |
| 20260506180042 | 69 | 162 | 1.7 | 7.8 | 0.00 | 0.00 | 0.00 | 59 | 1008.0 |
| 20260506174536 | 70 | 241 | 2.6 | 9.6 | 0.00 | 0.00 | 0.00 | 57 | 1008.2 |
| 20260506173034 | 70 | 242 | 2.6 | 8.7 | 0.00 | 0.00 | 0.00 | 58 | 1008.5 |
| 20260506171549 | 69 | 233 | 3.5 | 7.8 | 0.00 | 0.00 | 0.00 | 59 | 1008.2 |
| 20260506170038 | 69 | 177 | 1.7 | 6.1 | 0.00 | 0.00 | 0.00 | 60 | 1008.2 |
| 20260506164534 | 69 | 120 | 0.9 | 7.0 | 0.00 | 0.00 | 0.00 | 59 | 1008.6 |
| 20260506163036 | 69 | 289 | 1.7 | 9.6 | 0.00 | 0.00 | 0.00 | 58 | 1008.8 |
| 20260506161531 | 71 | 161 | 1.7 | 4.3 | 0.00 | 0.00 | 0.00 | 57 | 1009.0 |
| 20260506160032 | 70 | 106 | 1.7 | 6.1 | 0.00 | 0.00 | 0.00 | 58 | 1009.2 |
| 20260506154529 | 70 | 198 | 2.6 | 9.6 | 0.00 | 0.00 | 0.00 | 56 | 1009.4 |
| 20260506153028 | 70 | 272 | 0.9 | 8.7 | 0.00 | 0.00 | 0.00 | 58 | 1009.7 |
| 20260506151534 | 70 | 252 | 2.6 | 8.7 | 0.00 | 0.00 | 0.00 | 57 | 1009.9 |
| 20260506150028 | 70 | 153 | 3.5 | 10.4 | 0.00 | 0.00 | 0.00 | 57 | 1009.8 |
| 20260506144526 | 70 | 329 | 1.7 | 9.6 | 0.00 | 0.00 | 0.00 | 57 | 1009.7 |
| 20260506143024 | 69 | 198 | 3.5 | 7.8 | 0.00 | 0.00 | 0.00 | 58 | 1009.6 |
| 20260506141522 | 69 | 258 | 1.7 | 5.2 | 0.00 | 0.00 | 0.00 | 60 | 1009.6 |
| 20260506140026 | 68 | 193 | 0.9 | 6.1 | 0.00 | 0.00 | 0.00 | 62 | 1009.7 |
| 20260506134520 | 68 | 152 | 0.9 | 7.8 | 0.00 | 0.00 | 0.00 | 62 | 1009.9 |
| 20260506133033 | 66 | 18 | 2.6 | 7.0 | 0.00 | 0.00 | 0.00 | 65 | 1010.3 |
| 20260506131517 | 66 | 267 | 2.6 | 5.2 | 0.00 | 0.00 | 0.00 | 67 | 1010.3 |
| 20260506130011 | 64 | 210 | 2.6 | 5.2 | 0.00 | 0.00 | 0.00 | 70 | 1010.3 |
| 20260506124508 | 63 | 162 | 2.6 | 6.1 | 0.00 | 0.00 | 0.00 | 73 | 1010.5 |
| 20260506123006 | 62 | 242 | 0.9 | 6.1 | 0.00 | 0.00 | 0.00 | 75 | 1010.3 |
| 20260506121504 | 61 | 169 | 2.6 | 7.0 | 0.00 | 0.00 | 0.00 | 77 | 1010.1 |
| 20260506120003 | 60 | 140 | 0.9 | 2.6 | 0.00 | 0.00 | 0.00 | 79 | 1010.7 |
| 20260506114501 | 60 | 81 | 2.6 | 6.1 | 0.00 | 0.00 | 0.00 | 80 | 1010.9 |
| 20260506113102 | 59 | 287 | 0.9 | 4.3 | 0.00 | 0.00 | 0.00 | 82 | 1010.9 |
| 20260506111607 | 59 | 178 | 0.0 | 4.3 | 0.00 | 0.00 | 0.00 | 84 | 1010.7 |
| 20260506110101 | 58 | 202 | 0.0 | 3.5 | 0.00 | 0.00 | 0.00 | 85 | 1010.8 |
| 20260506104601 | 58 | 104 | 0.0 | 2.6 | 0.00 | 0.00 | 0.00 | 85 | 1010.8 |
| 20260506103102 | 58 | 205 | 0.9 | 4.3 | 0.00 | 0.00 | 0.00 | 84 | 1010.7 |
| 20260506101558 | 58 | 173 | 0.9 | 2.6 | 0.00 | 0.00 | 0.00 | 84 | 1010.7 |
| 20260506100101 | 57 | 223 | 1.7 | 6.1 | 0.00 | 0.00 | 0.00 | 84 | 1010.6 |
| 20260506094556 | 58 | 218 | 0.0 | 3.5 | 0.00 | 0.00 | 0.00 | 83 | 1010.5 |
| 20260506093055 | 58 | 247 | 0.9 | 3.5 | 0.00 | 0.00 | 0.00 | 83 | 1010.5 |
| 20260506091600 | 58 | 202 | 0.9 | 4.3 | 0.00 | 0.00 | 0.00 | 83 | 1010.5 |
| 20260506090053 | 58 | 177 | 0.9 | 4.3 | 0.00 | 0.00 | 0.00 | 83 | 1010.6 |
| 20260506084555 | 58 | 155 | 0.9 | 6.1 | 0.00 | 0.00 | 0.00 | 82 | 1010.7 |
| 20260506083052 | 58 | 291 | 0.9 | 4.3 | 0.00 | 0.00 | 0.00 | 80 | 1010.7 |
| 20260506081552 | 59 | 179 | 0.0 | 3.5 | 0.00 | 0.00 | 0.00 | 79 | 1010.7 |
| 20260506073048 | 59 | 211 | 0.9 | 3.5 | 0.00 | 0.00 | 0.00 | 78 | 1010.6 |
| 20260506071546 | 59 | 202 | 0.9 | 5.2 | 0.00 | 0.00 | 0.00 | 77 | 1010.6 |
| 20260506061543 | 59 | 227 | 1.7 | 4.3 | 0.00 | 0.00 | 0.00 | 74 | 1010.5 |
| 20260506050138 | 59 | 289 | 0.9 | 4.3 | 0.00 | 0.00 | 0.00 | 71 | 1010.8 |
| 20260506044537 | 59 | 208 | 0.9 | 5.2 | 0.00 | 0.00 | 0.00 | 70 | 1010.9 |
| 20260506043036 | 59 | 321 | 0.9 | 5.2 | 0.00 | 0.00 | 0.00 | 69 | 1011.1 |
| 20260506041533 | 59 | 236 | 0.9 | 2.6 | 0.00 | 0.00 | 0.00 | 68 | 1011.0 |
| 20260506040038 | 59 | 240 | 1.7 | 6.1 | 0.00 | 0.00 | 0.00 | 68 | 1010.9 |
| 20260506034531 | 59 | 288 | 0.0 | 6.1 | 0.00 | 0.00 | 0.00 | 67 | 1011.0 |
| 20260506033034 | 60 | 208 | 0.9 | 5.2 | 0.00 | 0.00 | 0.00 | 67 | 1010.8 |
| 20260506031531 | 60 | 133 | 0.9 | 5.2 | 0.00 | 0.00 | 0.00 | 66 | 1010.7 |
| 20260506030030 | 60 | 287 | 0.9 | 5.2 | 0.00 | 0.00 | 0.00 | 65 | 1010.7 |
| 20260506024531 | 61 | 178 | 0.9 | 5.2 | 0.00 | 0.00 | 0.00 | 64 | 1010.7 |
| 20260506023031 | 61 | 170 | 1.7 | 6.1 | 0.00 | 0.00 | 0.00 | 64 | 1010.7 |
| 20260506021533 | 61 | 215 | 1.7 | 5.2 | 0.00 | 0.00 | 0.00 | 64 | 1010.6 |
| 20260506020033 | 60 | 187 | 0.9 | 3.5 | 0.00 | 0.00 | 0.00 | 64 | 1010.7 |
| 20260506014528 | 60 | 204 | 0.0 | 7.0 | 0.00 | 0.00 | 0.00 | 64 | 1010.7 |
| 20260506013027 | 60 | 175 | 0.9 | 5.2 | 0.00 | 0.00 | 0.00 | 64 | 1010.6 |
| 20260506011530 | 60 | 306 | 0.0 | 2.6 | 0.00 | 0.00 | 0.00 | 65 | 1010.5 |
| 20260506010043 | 60 | 171 | 0.0 | 2.6 | 0.00 | 0.00 | 0.00 | 64 | 1010.3 |
| 20260506004527 | 60 | 5 | 0.9 | 3.5 | 0.00 | 0.00 | 0.00 | 65 | 1010.2 |
| 20260506003026 | 60 | 224 | 0.9 | 2.6 | 0.00 | 0.00 | 0.00 | 65 | 1010.0 |
| 20260506001526 | 61 | 248 | 0.0 | 2.6 | 0.00 | 0.00 | 0.00 | 65 | 1009.7 |
| 20260506000044 | 61 | 272 | 0.9 | 5.2 | 0.00 | 0.00 | 0.00 | 64 | 1009.5 |
| 20260505234603 | 62 | 254 | 0.9 | 3.5 | 0.00 | 0.00 | 0.00 | 63 | 1009.1 |
| 20260505233043 | 63 | 296 | 1.7 | 6.1 | 0.00 | 0.00 | 0.00 | 61 | 1009.0 |
| 20260505231543 | 64 | 196 | 1.7 | 4.3 | 0.00 | 0.00 | 0.00 | 59 | 1008.8 |
| 20260505230042 | 65 | 210 | 0.9 | 4.3 | 0.00 | 0.00 | 0.00 | 57 | 1008.6 |
| 20260505224542 | 66 | 137 | 1.7 | 7.0 | 0.00 | 0.00 | 0.00 | 54 | 1008.0 |
| 20260505223042 | 67 | 214 | 2.6 | 7.0 | 0.00 | 0.00 | 0.00 | 52 | 1008.0 |
| 20260505221542 | 68 | 263 | 1.7 | 6.1 | 0.00 | 0.00 | 0.00 | 51 | 1008.1 |
| 20260505220041 | 69 | 144 | 2.6 | 6.1 | 0.00 | 0.00 | 0.00 | 50 | 1008.0 |
| 20260505214559 | 70 | 181 | 2.6 | 7.0 | 0.00 | 0.00 | 0.00 | 48 | 1007.7 |
| 20260505213037 | 71 | 291 | 1.7 | 7.0 | 0.00 | 0.00 | 0.00 | 47 | 1007.6 |
| 20260505211537 | 72 | 188 | 4.3 | 13.0 | 0.00 | 0.00 | 0.00 | 46 | 1007.7 |
| 20260505210036 | 72 | 111 | 1.7 | 9.6 | 0.00 | 0.00 | 0.00 | 46 | 1007.6 |
| 20260505204542 | 73 | 171 | 3.5 | 10.4 | 0.00 | 0.00 | 0.00 | 44 | 1007.5 |
| 20260505203043 | 73 | 177 | 2.6 | 7.0 | 0.00 | 0.00 | 0.00 | 43 | 1007.6 |
| 20260505201537 | 74 | 150 | 2.6 | 7.8 | 0.00 | 0.00 | 0.00 | 42 | 1007.7 |